MMS 2

Last updated on Fri Dec 19 2025 00:02:42 GMT+0000 (Coordinated Universal Time)

1 40483U 15011B 25352.66667824 -.00000535 00000+0 00000+0 0 9991 2 40483 69.3165 351.4636 8500259 163.4680 246.0266 0.28358853 1308
UTC large
Height (km)
Speed (km/s)
/
Latitude / Longitude
Inclination (degrees)
Orbital Period (minutes)
Azimuth
Elevation
Range (km)
Doppler Factor

Next 0 passes for location: London (51.5072 / 0.1276)

Sorry there are no passes over London.